Regional Weather Roundup
Issued by NWS

Home | Current Version | Previous Version | Graphics & Text | Print | Product List | Glossary On
Versions: 1 2 3 4 5 6 7 8 9 10 11 12 13 14 15 16 17 18 19 20 21 22 23 24 25 26 27 28 29 30 31 32 33 34 35 36 37 38 39 40 41 42 43 44 45 46 47 48 49 50
000
ASUS43 KBIS 030102
RWRND

NORTH DAKOTA REGIONAL WEATHER ROUNDUP
NATIONAL WEATHER SERVICE BISMARCK ND
800 PM CDT MON MAY 02 2016

NOTE: "FAIR" INDICATES FEW OR NO CLOUDS BELOW 12,000 FEET WITH NO
SIGNIFICANT WEATHER AND/OR OBSTRUCTIONS TO VISIBILITY.


NDZ001>003-009>011-017-030200-
NORTHWEST NORTH DAKOTA

CITY           SKY/WX    TMP DP  RH WIND       PRES   REMARKS
WILLISTON      SUNNY     71  24  17 N10       29.99S
MINOT          CLEAR     69  34  27 E6        29.97S
$$

NDZ018>021-031>035-040>046-030200-
SOUTHWEST NORTH DAKOTA

CITY           SKY/WX    TMP DP  RH WIND       PRES   REMARKS
BISMARCK       CLEAR     62  42  47 E7        29.98R
DICKINSON      CLEAR     62  32  32 NE12      29.99R
GARRISON         N/A     65  36  34 NE7       29.98S
HETTINGER ARPT CLEAR     63  32  31 N13       30.01R
$$

NDZ004>008-012>016-024-026-027-054-030200-
NORTHEAST NORTH DAKOTA

CITY           SKY/WX    TMP DP  RH WIND       PRES   REMARKS
GRAND FORKS    PTCLDY    67  31  26 SW6       29.94S
DEVILS LAKE    CLEAR     63  33  32 SW6       29.99S
$$

NDZ022-023-025-028>030-036>039-047>053-030200-
SOUTHEAST NORTH DAKOTA

CITY           SKY/WX    TMP DP  RH WIND       PRES   REMARKS
FARGO          PTCLDY    66  33  29 W13       29.96R
JAMESTOWN      CLEAR     58  38  47 S8        30.00R
$$




USA.gov is the U.S. government's official web portal to all federal, state and local government web resources and services.